328P/LONEOS-Tucker (2024)

Japanese version
Home page
Updated on September 27, 2024

---------------------------------------------------------------------

* Profile

* Pictures

* Orbital Elements

Epoch 2024 Mar. 31.0 TT = JDT 2460400.5
T 2024 July 27.97205 TT                                 Rudenko
q   1.8734197            (2000.0)            P               Q
n   0.11499806     Peri.   30.65074     +0.96960057     -0.22516905
a   4.1880229      Node   341.60989     +0.11232167     +0.75731402
e   0.5526721      Incl.   17.67354     +0.21739040     +0.61300439
P   8.57
>From 408 observations 1998 Aug. 27-2024 June 12, mean residual 1".0.

* Magnitudes Graph

        m1 = 5.0 + 5 log d + 40.0 log r

---------------------------------------------------------------------

The orbital elements are published on M.P.E.C. 2024-M41.
The magnitudes graphs are made with Comet for Windows.

---------------------------------------------------------------------

Copyright(C) Seiichi Yoshida (comet@aerith.net). All rights reserved.